H1 CPF 2 NER 2024 3 31 9 091 01 glonass107 H2 0706501 9107 32393 2024 3 31 0 0 0 2024 4 3 23 45 0 900 1 1 0 0 0 1 H9 10 0 60400 0.00000 0 21447690.475 13660625.553 1976157.404 10 0 60400 900.00000 0 21121335.523 13336549.892 5141902.905 10 0 60400 1800.00000 0 20423294.420 12877602.193 8207694.682 10 0 60400 2700.00000 0 19350019.864 12339778.712 11113906.543 10 0 60400 3600.00000 0 17911085.629 11779886.030 13803996.576 10 0 60400 4500.00000 0 16128981.545 11252968.285 16225613.219 10 0 60400 5400.00000 0 14038378.365 10809821.886 18331619.898 10 0 60400 6300.00000 0 11684892.175 10494703.540 20081017.729 10 0 60400 7200.00000 0 9123399.172 10343329.227 21439747.984 10 0 60400 8100.00000 0 6415970.561 10381249.363 22381358.422 10 0 60400 9000.00000 0 3629513.254 10622669.372 22887520.504 10 0 60400 9900.00000 0 833214.395 11069765.965 22948387.356 10 0 60400 10800.00000 0 -1904104.130 11712528.411 22562785.622 10 0 60400 11700.00000 0 -4516611.349 12529131.796 21738237.528 10 0 60400 12600.00000 0 -6943964.028 13486826.787 20490812.800 10 0 60400 13500.00000 0 -9133571.189 14543308.495 18844813.373 10 0 60400 14400.00000 0 -11042532.591 15648506.790 16832297.045 10 0 60400 15300.00000 0 -12639171.178 16746722.457 14492449.452 10 0 60400 16200.00000 0 -13904096.565 17779018.967 11870816.711 10 0 60400 17100.00000 0 -14830756.427 18685768.693 9018413.859 10 0 60400 18000.00000 0 -15425454.165 19409245.809 5990726.827 10 0 60400 18900.00000 0 -15706833.825 19896156.123 2846627.824 10 0 60400 19800.00000 0 -15704855.644 20099996.757 -352774.265 10 0 60400 20700.00000 0 -15459307.095 19983145.861 -3545325.444 10 0 60400 21600.00000 0 -15017913.783 19518594.025 -6669036.438 10 0 60400 22500.00000 0 -14434131.262 18691244.362 -9663286.853 10 0 60400 23400.00000 0 -13764712.029 17498726.495 -12469999.961 10 0 60400 24300.00000 0 -13067151.092 15951690.225 -15034765.331 10 0 60400 25200.00000 0 -12397118.181 14073566.511 -17307887.817 10 0 60400 26100.00000 0 -11805984.862 11899805.661 -19245343.095 10 0 60400 27000.00000 0 -11338550.332 9476624.238 -20809622.053 10 0 60400 27900.00000 0 -11031061.118 6859312.443 -21970448.653 10 0 60400 28800.00000 0 -10909607.233 4110171.686 -22705358.345 10 0 60400 29700.00000 0 -10988961.594 1296167.082 -23000126.835 10 0 60400 30600.00000 0 -11271910.932 -1513608.938 -22849041.646 10 0 60400 31500.00000 0 -11749106.062 -4250558.049 -22255011.745 10 0 60400 32400.00000 0 -12399437.871 -6849175.282 -21229513.257 10 0 60400 33300.00000 0 -13190923.677 -9249519.817 -19792372.110 10 0 60400 34200.00000 0 -14082067.434 -11399456.138 -17971387.276 10 0 60400 35100.00000 0 -15023637.580 -13256573.715 -15801801.064 10 0 60400 36000.00000 0 -15960788.787 -14789706.326 -13325625.711 10 0 60400 36900.00000 0 -16835439.312 -15979988.463 -10590838.249 10 0 60400 37800.00000 0 -17588804.596 -16821405.233 -7650458.274 10 0 60400 38700.00000 0 -18163980.831 -17320813.077 -4561525.617 10 0 60400 39600.00000 0 -18508469.594 -17497430.619 -1383997.239 10 0 60400 40500.00000 0 -18576536.702 -17381821.176 1820415.512 10 0 60400 41400.00000 0 -18331304.982 -17014409.903 4989446.700 10 0 60400 42300.00000 0 -17746491.521 -16443598.246 8061488.936 10 0 60400 43200.00000 0 -16807714.752 -15723555.593 10976795.795 10 0 60400 44100.00000 0 -15513314.708 -14911781.760 13678649.464 10 0 60400 45000.00000 0 -13874650.293 -14066543.819 16114470.199 10 0 60400 45900.00000 0 -11915859.536 -13244296.118 18236845.378 10 0 60400 46800.00000 0 -9673091.386 -12497193.086 20004457.605 10 0 60400 47700.00000 0 -7193240.048 -11870800.430 21382893.401 10 0 60400 48600.00000 0 -4532233.758 -11402101.853 22345316.529 10 0 60400 49500.00000 0 -1752948.633 -11117885.777 22872992.740 10 0 60400 50400.00000 0 1077165.947 -11033580.412 22955655.725 10 0 60400 51300.00000 0 3888651.963 -11152586.426 22591707.215 10 0 60400 52200.00000 0 6612690.973 -11466135.395 21788247.404 10 0 60400 53100.00000 0 9183725.987 -11953679.887 20560935.142 10 0 60400 54000.00000 0 11541948.227 -12583798.586 18933680.712 10 0 60400 54900.00000 0 13635545.683 -13315577.956 16938177.151 10 0 60400 55800.00000 0 15422620.309 -14100411.865 14613279.361 10 0 60400 56700.00000 0 16872694.654 -14884142.715 12004243.198 10 0 60400 57600.00000 0 17967746.030 -15609453.253 9161839.560 10 0 60400 58500.00000 0 18702726.149 -16218407.486 6141361.090 10 0 60400 59400.00000 0 19085545.879 -16655032.834 3001541.285 10 0 60400 60300.00000 0 19136527.393 -16867833.949 -196592.468 10 0 60400 61200.00000 0 18887348.344 -16812131.564 -3390908.953 10 0 60400 62100.00000 0 18379524.120 -16452127.258 -6519382.629 10 0 60400 63000.00000 0 17662493.568 -15762606.776 -9521298.620 10 0 60400 63900.00000 0 16791390.040 -14730209.905 -12338429.500 10 0 60400 64800.00000 0 15824592.570 -13354213.318 -14916161.005 10 0 60400 65700.00000 0 14821160.838 -11646793.320 -17204545.128 10 0 60400 66600.00000 0 13838262.007 -9632757.212 -19159260.680 10 0 60400 67500.00000 0 12928697.436 -7348754.160 -20742463.500 10 0 60400 68400.00000 0 12138632.631 -4841997.886 -21923510.829 10 0 60400 69300.00000 0 11505625.003 -2168553.637 -22679546.779 10 0 60400 70200.00000 0 11057031.354 608740.357 -22995938.576 10 0 60400 71100.00000 0 10808861.006 3422631.872 -22866555.897 10 0 60400 72000.00000 0 10765122.048 6203997.610 -22293888.411 10 0 60400 72900.00000 0 10917687.639 8884466.127 -21288999.444 10 0 60400 73800.00000 0 11246687.899 11399013.480 -19871316.447 10 0 60400 74700.00000 0 11721411.109 13688425.303 -18068261.812 10 0 60400 75600.00000 0 12301676.843 15701524.308 -15914730.371 10 0 60400 76500.00000 0 12939623.957 17397071.592 -13452422.659 10 0 60400 77400.00000 0 13581838.889 18745263.291 -10729045.854 10 0 60400 78300.00000 0 14171735.274 19728760.602 -7797396.828 10 0 60400 79200.00000 0 14652084.949 20343210.391 -4714344.275 10 0 60400 80100.00000 0 14967593.689 20597234.630 -1539729.088 10 0 60400 81000.00000 0 15067412.696 20511889.126 1664795.948 10 0 60400 81900.00000 0 14907479.098 20119614.270 4836964.617 10 0 60400 82800.00000 0 14452585.629 19462721.987 7915110.257 10 0 60400 83700.00000 0 13678090.767 18591482.782 10839369.181 10 0 60400 84600.00000 0 12571195.614 17561893.759 13552850.529 10 0 60400 85500.00000 0 11131732.013 16433222.136 16002749.052 10 0 60401 0.00000 0 9372427.186 15265428.422 18141378.388 10 0 60401 900.00000 0 7318631.112 14116577.777 19927105.274 10 0 60401 1800.00000 0 5007518.985 13040350.753 21325163.306 10 0 60401 2700.00000 0 2486797.745 12083756.621 22308333.993 10 0 60401 3600.00000 0 -187028.107 11285147.461 22857478.815 10 0 60401 4500.00000 0 -2950760.684 10672616.124 22961913.111 10 0 60401 5400.00000 0 -5736895.676 10262845.614 22619614.366 10 0 60401 6300.00000 0 -8476193.152 10060458.084 21837260.937 10 0 60401 7200.00000 0 -11100325.484 10057890.507 20630100.504 10 0 60401 8100.00000 0 -13544492.440 10235801.778 19021650.878 10 0 60401 9000.00000 0 -15749894.900 10563993.448 17043239.021 10 0 60401 9900.00000 0 -17665964.410 11002804.628 14733387.321 10 0 60401 10800.00000 0 -19252256.150 11504921.426 12137059.211 10 0 60401 11700.00000 0 -20479926.926 12017523.748 9304778.990 10 0 60401 12600.00000 0 -21332737.291 12484678.009 6291643.348 10 0 60401 13500.00000 0 -21807536.936 12849873.807 3156244.268 10 0 60401 14400.00000 0 -21914214.344 13058596.670 -40475.231 10 0 60401 15300.00000 0 -21675114.198 13060827.424 -3236409.614 10 0 60401 16200.00000 0 -21123948.552 12813362.064 -6369499.972 10 0 60401 17100.00000 0 -20304248.981 12281853.698 -9378939.822 10 0 60401 18000.00000 0 -19267426.059 11442490.100 -12206353.836 10 0 60401 18900.00000 0 -18070518.842 10283235.919 -14796926.592 10 0 60401 19800.00000 0 -16773729.639 8804587.044 -17100459.705 10 0 60401 20700.00000 0 -15437847.953 7019805.133 -19072337.341 10 0 60401 21600.00000 0 -14121671.656 4954622.088 -20674382.205 10 0 60401 22500.00000 0 -12879533.092 2646426.176 -21875586.368 10 0 60401 23400.00000 0 -11759033.036 142962.999 -22652703.774 10 0 60401 24300.00000 0 -10799076.460 -2499395.671 -22990693.943 10 0 60401 25200.00000 0 -10028291.276 -5217744.466 -22883009.073 10 0 60401 26100.00000 0 -9463895.264 -7945012.882 -22331719.506 10 0 60401 27000.00000 0 -9111057.769 -10612512.874 -21347475.335 10 0 60401 27900.00000 0 -8962782.294 -13152561.390 -19949304.722 10 0 60401 28800.00000 0 -9000314.625 -15501070.421 -18164252.318 10 0 60401 29700.00000 0 -9194059.328 -17599998.247 -16026863.994 10 0 60401 30600.00000 0 -9504966.344 -19399560.976 -13578526.846 10 0 60401 31500.00000 0 -9886329.752 -20860112.985 -10866676.246 10 0 60401 32400.00000 0 -10285923.345 -21953618.261 -7943884.256 10 0 60401 33300.00000 0 -10648383.315 -22664651.333 -4866846.242 10 0 60401 34200.00000 0 -10917737.591 -22990885.831 -1695284.763 10 0 60401 35100.00000 0 -11039974.832 -22943050.012 1509208.281 10 0 60401 36000.00000 0 -10965543.981 -22544350.894 4684368.780 10 0 60401 36900.00000 0 -10651677.877 -21829391.004 7768473.241 10 0 60401 37800.00000 0 -10064441.498 -20842623.236 10701543.213 10 0 60401 38700.00000 0 -9180416.892 -19636408.890 13426517.298 10 0 60401 39600.00000 0 -7987952.024 -18268760.868 15890367.228 10 0 60401 40500.00000 0 -6487919.157 -16800867.339 18045135.630 10 0 60401 41400.00000 0 -4693949.129 -15294500.498 19848874.816 10 0 60401 42300.00000 0 -2632129.976 -13809419.856 21266467.834 10 0 60401 43200.00000 0 -340181.080 -12400879.588 22270315.620 10 0 60401 44100.00000 0 2133863.940 -11117344.967 22840876.737 10 0 60401 45000.00000 0 4733411.587 -9998513.902 22967049.168 10 0 60401 45900.00000 0 7395427.693 -9073726.561 22646386.810 10 0 60401 46800.00000 0 10052833.765 -8360829.570 21885146.503 10 0 60401 47700.00000 0 12637080.967 -7865541.958 20698164.747 10 0 60401 48600.00000 0 15080794.848 -7581348.810 19108566.561 10 0 60401 49500.00000 0 17320380.792 -7489926.194 17147312.182 10 0 60401 50400.00000 0 19298481.794 -7562078.507 14852590.511 10 0 60401 51300.00000 0 20966186.268 -7759147.663 12269071.226 10 0 60401 52200.00000 0 22284894.085 -8034833.556 9447030.320 10 0 60401 53100.00000 0 23227763.360 -8337347.861 6441366.445 10 0 60401 54000.00000 0 23780678.200 -8611809.090 3310527.626 10 0 60401 54900.00000 0 23942697.815 -8802776.683 115369.763 10 0 60401 55800.00000 0 23725969.307 -8856816.123 -3082030.275 10 0 60401 56700.00000 0 23155109.037 -8724985.882 -6219583.312 10 0 60401 57600.00000 0 22266079.858 -8365140.534 -9236394.372 10 0 60401 58500.00000 0 21104612.560 -7743952.302 -12073943.259 10 0 60401 59400.00000 0 19724238.900 -6838565.475 -14677216.254 10 0 60401 60300.00000 0 18184019.505 -5637813.678 -16995767.248 10 0 60401 61200.00000 0 16546062.395 -4142948.547 -18984688.172 10 0 60401 62100.00000 0 14872936.178 -2367848.811 -20605470.743 10 0 60401 63000.00000 0 13225085.816 -338700.486 -21826743.728 10 0 60401 63900.00000 0 11658358.446 1906839.225 -22624872.477 10 0 60401 64800.00000 0 10221741.647 4320960.426 -22984410.060 10 0 60401 65700.00000 0 8955407.518 6847447.730 -22898392.116 10 0 60401 66600.00000 0 7889143.101 9423784.900 -22368470.223 10 0 60401 67500.00000 0 7041231.533 11983530.964 -21404881.447 10 0 60401 68400.00000 0 6417829.772 14458870.658 -20026254.492 10 0 60401 69300.00000 0 6012868.174 16783234.696 -18259255.724 10 0 60401 70200.00000 0 5808475.670 18893882.248 -16138081.129 10 0 60401 71100.00000 0 5775912.515 20734339.226 -13703803.066 10 0 60401 72000.00000 0 5876971.434 22256591.529 -11003583.415 10 0 60401 72900.00000 0 6065788.339 23422942.155 -8089767.369 10 0 60401 73800.00000 0 6290986.472 24207454.685 -5018874.561 10 0 60401 74700.00000 0 6498063.547 24596922.527 -1850506.510 10 0 60401 75600.00000 0 6631920.922 24591322.981 1353808.708 10 0 60401 76500.00000 0 6639427.462 24203736.588 4531812.188 10 0 60401 77400.00000 0 6471908.960 23459734.716 7621726.754 10 0 60401 78300.00000 0 6087456.804 22396260.747 10563462.318 10 0 60401 79200.00000 0 5452956.972 21060051.669 13299789.979 10 0 60401 80100.00000 0 4545752.122 19505666.368 15777461.319 10 0 60401 81000.00000 0 3354864.974 17793203.624 17948250.463 10 0 60401 81900.00000 0 1881729.689 15985805.880 19769898.132 10 0 60401 82800.00000 0 140398.761 14147053.930 21206938.817 10 0 60401 83700.00000 0 -1842784.830 12338362.157 22231394.780 10 0 60401 84600.00000 0 -4030037.954 10616483.754 22823323.221 10 0 60401 85500.00000 0 -6373475.743 9031230.624 22971205.947 10 0 60402 0.00000 0 -8816882.894 7623503.487 22672174.045 10 0 60402 900.00000 0 -11297845.980 6423713.683 21932063.029 10 0 60402 1800.00000 0 -13750155.020 5450664.082 20765297.936 10 0 60402 2700.00000 0 -16106378.777 4710932.697 19194610.162 10 0 60402 3600.00000 0 -18300503.352 4198785.769 17250591.853 10 0 60402 4500.00000 0 -20270525.300 3896621.992 14971096.554 10 0 60402 5400.00000 0 -21960890.896 3775927.992 12400497.893 10 0 60402 6300.00000 0 -23324679.757 3798703.445 9588820.931 10 0 60402 7200.00000 0 -24325441.708 3919294.324 6590763.406 10 0 60402 8100.00000 0 -24938610.408 4086555.555 3464626.373 10 0 60402 9000.00000 0 -25152435.101 4246250.435 271175.531 10 0 60402 9900.00000 0 -24968392.186 4343584.268 -2927543.990 10 0 60402 10800.00000 0 -24401060.288 4325764.159 -6069415.791 10 0 60402 11700.00000 0 -23477465.092 4144475.977 -9093459.376 10 0 60402 12600.00000 0 -22235922.498 3758173.274 -11941012.542 10 0 60402 13500.00000 0 -20724429.554 3134081.113 -14556865.996 10 0 60402 14400.00000 0 -18998671.398 2249830.044 -16890328.397 10 0 60402 15300.00000 0 -17119728.173 1094651.155 -18896201.661 10 0 60402 16200.00000 0 -15151577.994 -329918.296 -20535648.362 10 0 60402 17100.00000 0 -13158500.090 -2009848.709 -21776935.398 10 0 60402 18000.00000 0 -11202485.968 -3918959.835 -22596040.485 10 0 60402 18900.00000 0 -9340765.660 -6019776.888 -22977110.738 10 0 60402 19800.00000 0 -7623551.031 -8264866.496 -22912765.258 10 0 60402 20700.00000 0 -6092088.947 -10598598.073 -22404236.449 10 0 60402 21600.00000 0 -4777104.133 -12959258.793 -21461347.536 10 0 60402 22500.00000 0 -3697695.458 -15281435.694 -20102326.603 10 0 60402 23400.00000 0 -2860730.681 -17498567.259 -18353460.262 10 0 60402 24300.00000 0 -2260764.156 -19545559.652 -16248592.909 10 0 60402 25200.00000 0 -1880480.378 -21361359.728 -13828480.257 10 0 60402 26100.00000 0 -1691644.440 -22891378.311 -11140008.656 10 0 60402 27000.00000 0 -1656519.342 -24089662.994 -8235294.306 10 0 60402 27900.00000 0 -1729690.394 -24920729.719 -5170678.930 10 0 60402 28800.00000 0 -1860219.779 -25360976.184 -2005640.816 10 0 60402 29700.00000 0 -1994040.110 -25399617.333 1198358.001 10 0 60402 30600.00000 0 -2076485.482 -25039103.032 4379066.038 10 0 60402 31500.00000 0 -2054852.363 -24294999.661 7474654.683 10 0 60402 32400.00000 0 -1880881.137 -23195339.922 10424924.465 10 0 60402 33300.00000 0 -1513052.180 -21779467.633 13172481.229 10 0 60402 34200.00000 0 -918598.071 -20096425.649 15663858.607 10 0 60402 35100.00000 0 -75145.409 -18202954.426 17850564.331 10 0 60402 36000.00000 0 1028084.638 -16161185.172 19690029.466 10 0 60402 36900.00000 0 2389569.249 -14036124.441 21146441.662 10 0 60402 37800.00000 0 3995301.666 -11893035.731 22191445.936 10 0 60402 38700.00000 0 5819142.818 -9794827.817 22804699.250 10 0 60402 39600.00000 0 7823693.377 -7799559.207 22974268.020 10 0 60402 40500.00000 0 9961650.807 -5958162.938 22696860.882 10 0 60402 41400.00000 0 12177595.464 -4312486.577 21977892.269 10 0 60402 42300.00000 0 14410131.680 -2893728.821 20831375.582 10 0 60402 43200.00000 0 16594294.732 -1721337.327 19279648.145 10 0 60402 44100.00000 0 18664123.354 -802412.855 17352933.300 10 0 60402 45000.00000 0 20555290.278 -131643.441 15088748.244 10 0 60402 45900.00000 0 22207680.833 308230.094 12531169.292 10 0 60402 46800.00000 0 23567811.640 545438.441 9729969.003 10 0 60402 47700.00000 0 24590988.147 617740.602 6739642.345 10 0 60402 48600.00000 0 25243110.682 570575.638 3618341.241 10 0 60402 49500.00000 0 25502053.596 454888.898 426738.769 10 0 60402 50400.00000 0 25358560.038 324725.909 -2773154.316 10 0 60402 51300.00000 0 24816615.440 234696.821 -5919197.146 10 0 60402 52200.00000 0 23893284.744 237419.506 -8950326.491 10 0 60402 53100.00000 0 22618021.019 381050.097 -11807740.872 10 0 60402 54000.00000 0 21031475.191 707005.717 -14436038.005 10 0 60402 54900.00000 0 19183857.407 1247975.816 -16784283.732 10 0 60402 55800.00000 0 17132919.042 2026306.096 -18806992.146 10 0 60402 56700.00000 0 14941639.836 3052823.180 -20464998.678 10 0 60402 57600.00000 0 12675716.511 4326149.664 -21726210.143 10 0 60402 58500.00000 0 10400957.054 5832538.638 -22566218.216 10 0 60402 59400.00000 0 8180688.353 7546235.234 -22968765.417 10 0 60402 60300.00000 0 6073283.915 9430350.956 -22926055.435 10 0 60402 61200.00000 0 4129913.279 11438215.389 -22438902.330 10 0 60402 62100.00000 0 2392605.323 13515150.227 -21516715.998 10 0 60402 63000.00000 0 892704.749 15600593.127 -20177324.052 10 0 60402 63900.00000 0 -350215.201 17630484.289 -18446633.124 10 0 60402 64800.00000 0 -1328939.478 19539817.673 -16358135.380 10 0 60402 65700.00000 0 -2048673.742 21265251.555 -13952268.856 10 0 60402 66600.00000 0 -2526580.595 22747670.312 -11275642.932 10 0 60402 67500.00000 0 -2790809.405 23934590.818 -8380142.990 10 0 60402 68400.00000 0 -2879060.722 24782312.899 -5321930.655 10 0 60402 69300.00000 0 -2836745.939 25257723.461 -2160358.470 10 0 60402 70200.00000 0 -2714820.034 25339678.041 1043180.340 10 0 60402 71100.00000 0 -2567379.256 25019900.984 4226444.693 10 0 60402 72000.00000 0 -2449125.828 24303365.497 7327557.639 10 0 60402 72900.00000 0 -2412807.627 23208136.643 10286213.473 10 0 60402 73800.00000 0 -2506742.105 21764682.998 13044855.906 10 0 60402 74700.00000 0 -2772530.319 20014685.122 15549803.663 10 0 60402 75600.00000 0 -3243059.018 18009390.342 17752300.972 10 0 60402 76500.00000 0 -3940876.570 15807582.458 19609471.950 10 0 60402 77400.00000 0 -4877012.690 13473251.294 21085159.867 10 0 60402 78300.00000 0 -6050293.134 11073059.570 22150634.678 10 0 60402 79200.00000 0 -7447179.538 8673713.031 22785154.937 10 0 60402 80100.00000 0 -9042142.362 6339343.700 22976373.098 10 0 60402 81000.00000 0 -10798552.306 4129015.439 22720576.359 10 0 60402 81900.00000 0 -12670053.715 2094455.645 22022758.458 10 0 60402 82800.00000 0 -14602363.012 278107.325 20896521.052 10 0 60402 83700.00000 0 -16535417.286 -1288417.823 19363806.694 10 0 60402 84600.00000 0 -18405783.300 -2585421.671 17454468.644 10 0 60402 85500.00000 0 -20149226.042 -3605693.198 15205685.943 10 0 60403 0.00000 0 -21703329.041 -4354550.672 12661235.540 10 0 60403 900.00000 0 -23010057.272 -4849352.699 9870634.355 10 0 60403 1800.00000 0 -24018152.944 -5118499.464 6888171.820 10 0 60403 2700.00000 0 -24685266.336 -5199969.293 3771847.565 10 0 60403 3600.00000 0 -24979730.067 -5139452.890 582238.774 10 0 60403 4500.00000 0 -24881903.297 -4988165.995 -2618681.465 10 0 60403 5400.00000 0 -24385029.519 -4800434.158 -5768751.088 10 0 60403 6300.00000 0 -23495572.355 -4631152.826 -8806827.321 10 0 60403 7200.00000 0 -22233015.736 -4533230.903 -11673972.487 10 0 60403 8100.00000 0 -20629137.378 -4555126.362 -14314594.224 10 0 60403 9000.00000 0 -18726786.451 -4738578.250 -16677518.233 10 0 60403 9900.00000 0 -16578216.888 -5116630.857 -18716973.156 10 0 60403 10800.00000 0 -14243046.048 -5712033.277 -20393469.247 10 0 60403 11700.00000 0 -11785923.664 -6536081.702 -21674554.738 10 0 60403 12600.00000 0 -9274007.705 -7587953.134 -22535436.223 10 0 60403 13500.00000 0 -6774351.297 -8854558.800 -22959452.049 10 0 60403 14400.00000 0 -4351308.246 -10310923.894 -22938390.365 10 0 60403 15300.00000 0 -2064063.632 -11921078.623 -22472646.272 10 0 60403 16200.00000 0 35609.330 -13639424.318 -21571215.285 10 0 60403 17100.00000 0 1905274.428 -15412518.880 -20251523.128 10 0 60403 18000.00000 0 3513360.814 -17181208.257 -18539094.729 10 0 60403 18900.00000 0 4840232.178 -18883016.324 -16467068.072 10 0 60403 19800.00000 0 5878753.115 -20454694.428 -14075561.355 10 0 60403 20700.00000 0 6634329.764 -21834824.930 -11410904.697 10 0 60403 21600.00000 0 7124423.591 -22966370.334 -8524750.246 10 0 60403 22500.00000 0 7377559.088 -23799061.384 -5473077.051 10 0 60403 23400.00000 0 7431867.394 -24291523.754 -2315109.382 10 0 60403 24300.00000 0 7333227.468 -24413053.441 887830.886 10 0 60403 25200.00000 0 7133083.532 -24144965.414 4073515.594 10 0 60403 26100.00000 0 6886031.435 -23481457.721 7180021.930 10 0 60403 27000.00000 0 6647276.562 -22429953.557 10146940.352 10 0 60403 27900.00000 0 6470071.600 -21010905.717 12916554.711 10 0 60403 28800.00000 0 6403243.463 -19257070.596 15434970.935 10 0 60403 29700.00000 0 6488915.042 -17212281.285 17653171.641 10 0 60403 30600.00000 0 6760519.231 -14929770.499 19527975.626 10 0 60403 31500.00000 0 7241190.296 -12470113.087 21022883.086 10 0 60403 32400.00000 0 7942601.639 -9898873.868 22108789.873 10 0 60403 33300.00000 0 8864300.094 -7284058.867 22764556.718 10 0 60403 34200.00000 0 9993565.792 -4693476.207 22977422.320 10 0 60403 35100.00000 0 11305804.401 -2192116.601 22743252.302 10 0 60403 36000.00000 0 12765456.018 160337.631 22066619.241 10 0 60403 36900.00000 0 14327383.088 2311771.520 20960712.299 10 0 60403 37800.00000 0 15938679.494 4219570.809 19447078.273 10 0 60403 38700.00000 0 17540825.066 5852149.891 17555199.140 10 0 60403 39600.00000 0 19072095.134 7190011.559 15321914.402 10 0 60403 40500.00000 0 20470123.805 8226295.604 12790699.607 10 0 60403 41400.00000 0 21674513.157 8966794.823 10010815.232 10 0 60403 42300.00000 0 22629378.365 9429439.455 7036342.854 10 0 60403 43200.00000 0 23285721.585 9643273.542 3925127.759 10 0 60403 44100.00000 0 23603534.517 9646968.083 737649.055 10 0 60403 45000.00000 0 23553541.131 9486935.390 -2464160.125 10 0 60403 45900.00000 0 23118507.273 9215125.751 -5618118.841 10 0 60403 46800.00000 0 22294062.251 8886600.756 -8663007.078 10 0 60403 47700.00000 0 21088998.089 8556986.765 -11539753.166 10 0 60403 48600.00000 0 19525034.166 8279916.781 -14192576.733 10 0 60403 49500.00000 0 17636057.352 8104569.047 -16570065.235 10 0 60403 50400.00000 0 15466869.561 8073406.318 -18626163.580 10 0 60403 51300.00000 0 13071495.015 8220210.959 -20321058.404 10 0 60403 52200.00000 0 10511117.527 8568498.348 -21621940.773 10 0 60403 53100.00000 0 7851733.172 9130375.113 -22503633.498 10 0 60403 54000.00000 0 5161615.106 9905890.030 -22949071.906 10 0 60403 54900.00000 0 2508694.739 10882904.974 -22949629.606 10 0 60403 55800.00000 0 -42033.295 12037491.696 -22505283.527 10 0 60403 56700.00000 0 -2430976.144 13334838.524 -21624615.314 10 0 60403 57600.00000 0 -4606176.839 14730629.977 -20324648.999 10 0 60403 58500.00000 0 -6525226.123 16172842.684 -18630527.641 10 0 60403 59400.00000 0 -8156773.744 17603883.648 -16575034.499 10 0 60403 60300.00000 0 -9481577.401 18962982.473 -14197967.024 10 0 60403 61200.00000 0 -10493046.382 20188738.297 -11545374.795 10 0 60403 62100.00000 0 -11197257.818 21221715.308 -8668675.135 10 0 60403 63000.00000 0 -11612445.325 22006978.224 -5623662.614 10 0 60403 63900.00000 0 -11767981.829 22496461.110 -2469431.067 10 0 60403 64800.00000 0 -11702899.599 22651069.479 732771.377 10 0 60403 65700.00000 0 -11464010.168 22442426.334 3920732.077 10 0 60403 66600.00000 0 -11103703.803 21854187.581 7032485.112 10 0 60403 67500.00000 0 -10677521.974 20882870.102 10007519.964 10 0 60403 68400.00000 0 -10241606.042 19538156.290 12787963.560 10 0 60403 69300.00000 0 -9850130.812 17842660.855 15319711.968 10 0 60403 70200.00000 0 -9552832.295 15831168.484 17553489.078 10 0 60403 71100.00000 0 -9392735.146 13549373.231 19445811.129 10 0 60403 72000.00000 0 -9404176.687 11052171.625 20959837.823 10 0 60403 72900.00000 0 -9611211.898 8401580.240 22066093.220 10 0 60403 73800.00000 0 -10026467.496 5664364.233 22743042.217 10 0 60403 74700.00000 0 -10650494.190 2909475.520 22977511.355 10 0 60403 75600.00000 0 -11471645.052 205407.082 22764945.804 10 0 60403 76500.00000 0 -12466485.628 -2382426.650 22109497.600 10 0 60403 77400.00000 0 -13600718.959 -4794174.518 21023943.476 10 0 60403 78300.00000 0 -14830586.798 -6977795.490 19529433.966 10 0 60403 79200.00000 0 -16104688.210 -8890974.637 17655078.703 10 0 60403 80100.00000 0 -17366138.985 -10502629.207 15437376.062 10 0 60403 81000.00000 0 -18554980.836 -11793943.005 12919498.364 10 0 60403 81900.00000 0 -19610738.704 -12758887.205 10150446.725 10 0 60403 82800.00000 0 -20475018.130 -13404207.312 7184092.315 10 0 60403 83700.00000 0 -21094032.955 -13748878.533 4078123.078 10 0 60403 84600.00000 0 -21420956.488 -13823054.254 892916.904 10 0 60403 85500.00000 0 -21417996.816 -13666553.618 -2309636.252 99